When you browse on this site, cookies collect data to enhance your experience and personalize the content and advertising you see.
Visit our Privacy Policy to learn more. By continuing to use the site, you agree to this use of cookies and data.
  • In Czech Republic
  • List of Countries
  • For 7 days
  • Water Temperature
  • Weather Map
  • Weather Widgets
  • user-avatar
    Login

    Hourly Weather Stepanakert

    Today, 5 April, Sunday

    Time Temperature Precipitation Wind Pressure Humidity
    00:00 +7°C° 0 mm 1 mps 696 mmHg 88%
    01:00 +7°C° 0 mm 1 mps 696 mmHg 85%
    02:00 +6°C° 0 mm 1 mps 696 mmHg 83%
    03:00 +7°C° 0 mm 1 mps 695 mmHg 81%
    04:00 +7°C° 0 mm 1 mps 696 mmHg 80%
    05:00 +7°C° 0 mm 1 mps 696 mmHg 79%
    06:00 +7°C° 0 mm 1 mps 696 mmHg 79%
    07:00 +9°C° 0 mm 1 mps 696 mmHg 74%
    08:00 +11°C° 0 mm 1 mps 697 mmHg 69%
    09:00 +13°C° 0 mm 1 mps 697 mmHg 65%
    10:00 +14°C° 0 mm 2 mps 697 mmHg 64%
    11:00 +15°C° 0 mm 2 mps 696 mmHg 63%
    12:00 +15°C° 0 mm 2 mps 696 mmHg 62%
    13:00 +16°C° 0 mm 2 mps 696 mmHg 64%
    14:00 +16°C° 0 mm 2 mps 695 mmHg 65%
    15:00 +16°C° 0 mm 2 mps 694 mmHg 67%
    16:00 +15°C° 0 mm 2 mps 694 mmHg 72%
    17:00 +14°C° 0 mm 1 mps 694 mmHg 77%
    18:00 +13°C° 0 mm 1 mps 694 mmHg 82%
    19:00 +13°C° 0 mm 1 mps 694 mmHg 83%
    20:00 +12°C° 0 mm 1 mps 694 mmHg 84%
    21:00 +11°C° 0 mm 1 mps 694 mmHg 84%
    22:00 +11°C° 0 mm 1 mps 693 mmHg 82%
    23:00 +11°C° 0 mm 1 mps 693 mmHg 80%

    Tomorrow, 6 April, Monday

    Time Temperature Precipitation Wind Pressure Humidity
    00:00 +11°C° 0 mm 1 mps 693 mmHg 78%
    01:00 +10°C° 0 mm 1 mps 693 mmHg 76%
    02:00 +10°C° 0 mm 1 mps 692 mmHg 75%
    03:00 +10°C° 0 mm 1 mps 692 mmHg 73%
    04:00 +10°C° 0 mm 1 mps 692 mmHg 73%
    05:00 +10°C° 0 mm 1 mps 692 mmHg 72%
    06:00 +10°C° 0 mm 1 mps 692 mmHg 71%
    07:00 +11°C° 0 mm 1 mps 692 mmHg 69%
    08:00 +13°C° 0 mm 1 mps 693 mmHg 67%
    09:00 +14°C° 0 mm 2 mps 693 mmHg 64%
    10:00 +15°C° 0 mm 2 mps 693 mmHg 66%
    11:00 +16°C° 0 mm 2 mps 693 mmHg 67%
    12:00 +16°C° 0 mm 2 mps 693 mmHg 69%
    13:00 +15°C° 0.3 mm 2 mps 693 mmHg 74%
    14:00 +15°C° 0.3 mm 2 mps 693 mmHg 79%
    15:00 +14°C° 0.3 mm 2 mps 692 mmHg 84%
    16:00 +13°C° 1 mm 2 mps 693 mmHg 88%
    17:00 +12°C° 1 mm 2 mps 693 mmHg 92%
    18:00 +10°C° 1 mm 3 mps 693 mmHg 96%
    19:00 +9°C° 1.3 mm 3 mps 693 mmHg 96%
    20:00 +9°C° 1.3 mm 3 mps 694 mmHg 96%
    21:00 +8°C° 1.3 mm 3 mps 694 mmHg 96%
    22:00 +7°C° 1.4 mm 3 mps 694 mmHg 96%
    23:00 +4°C° 1.4 mm 3 mps 694 mmHg 96%

    Day after tomorrow, 7 April, Tuesday

    Time Temperature Precipitation Wind Pressure Humidity
    00:00 +3°C° 1.4 mm 3 mps 694 mmHg 96%
    01:00 +3°C° 1.4 mm 3 mps 694 mmHg 96%
    02:00 +3°C° 1.4 mm 3 mps 694 mmHg 97%
    03:00 +2°C° 1.4 mm 3 mps 694 mmHg 97%
    04:00 +2°C° 0.8 mm 3 mps 695 mmHg 97%
    05:00 +1°C° 0.8 mm 3 mps 695 mmHg 97%
    06:00 +1°C° 0.8 mm 3 mps 695 mmHg 97%
    07:00 0°C° 0.6 mm 3 mps 696 mmHg 97%
    08:00 0°C° 0.6 mm 3 mps 696 mmHg 96%
    09:00 0°C° 0.6 mm 3 mps 696 mmHg 96%
    10:00 0°C° 0.8 mm 3 mps 697 mmHg 96%
    11:00 +1°C° 0.8 mm 2 mps 697 mmHg 96%
    12:00 +1°C° 0.8 mm 2 mps 697 mmHg 97%
    13:00 +1°C° 0.4 mm 2 mps 697 mmHg 96%
    14:00 +1°C° 0.4 mm 2 mps 697 mmHg 96%
    15:00 +1°C° 0.4 mm 2 mps 697 mmHg 95%
    16:00 +1°C° 0.2 mm 2 mps 697 mmHg 96%
    17:00 +1°C° 0.2 mm 2 mps 697 mmHg 96%
    18:00 +2°C° 0.2 mm 1 mps 698 mmHg 97%
    19:00 +2°C° 0.3 mm 1 mps 698 mmHg 97%
    20:00 +2°C° 0.3 mm 1 mps 698 mmHg 97%
    21:00 +1°C° 0.3 mm 1 mps 699 mmHg 98%
    22:00 -1°C° 0.5 mm 2 mps 699 mmHg 98%
    23:00 -1°C° 0.5 mm 2 mps 699 mmHg 98%

    8 April, Wednesday

    Time Temperature Precipitation Wind Pressure Humidity
    00:00 -1°C° 0.5 mm 2 mps 700 mmHg 98%
    01:00 -1°C° 0.3 mm 2 mps 700 mmHg 97%
    02:00 -2°C° 0.3 mm 2 mps 700 mmHg 97%
    03:00 -2°C° 0.3 mm 2 mps 700 mmHg 97%
    04:00 -2°C° 0.1 mm 2 mps 700 mmHg 95%
    05:00 -3°C° 0.1 mm 2 mps 701 mmHg 94%
    06:00 -3°C° 0.1 mm 2 mps 701 mmHg 93%
    07:00 -2°C° 0.1 mm 2 mps 701 mmHg 92%
    08:00 -1°C° 0.1 mm 2 mps 701 mmHg 90%
    09:00 -1°C° 0.1 mm 2 mps 701 mmHg 88%
    10:00 +1°C° 0.1 mm 2 mps 701 mmHg 88%
    11:00 +2°C° 0.1 mm 2 mps 700 mmHg 88%
    12:00 +2°C° 0.1 mm 2 mps 700 mmHg 88%
    13:00 +2°C° 0.1 mm 2 mps 699 mmHg 88%
    14:00 +3°C° 0.1 mm 2 mps 699 mmHg 89%
    15:00 +3°C° 0.1 mm 2 mps 698 mmHg 89%
    16:00 +3°C° 0.1 mm 2 mps 698 mmHg 90%
    17:00 +3°C° 0.1 mm 1 mps 697 mmHg 92%
    18:00 +3°C° 0.1 mm 1 mps 697 mmHg 93%
    19:00 +3°C° 0.1 mm 1 mps 697 mmHg 94%
    20:00 +3°C° 0.1 mm 1 mps 697 mmHg 94%
    21:00 +1°C° 0.1 mm 0 mps 697 mmHg 95%
    22:00 +1°C° 0 mm 0 mps 696 mmHg 95%
    23:00 +1°C° 0 mm 0 mps 696 mmHg 95%

    9 April, Thursday

    Time Temperature Precipitation Wind Pressure Humidity
    00:00 +1°C° 0 mm 0 mps 696 mmHg 95%
    01:00 0°C° 0 mm 0 mps 695 mmHg 94%
    02:00 0°C° 0 mm 0 mps 694 mmHg 93%
    03:00 0°C° 0 mm 0 mps 693 mmHg 92%
    04:00 0°C° 0 mm 0 mps 693 mmHg 91%
    05:00 0°C° 0 mm 0 mps 693 mmHg 90%
    06:00 0°C° 0 mm 0 mps 692 mmHg 88%
    07:00 +1°C° 0 mm 0 mps 692 mmHg 87%
    08:00 +4°C° 0 mm 1 mps 692 mmHg 86%
    09:00 +5°C° 0 mm 1 mps 692 mmHg 84%
    10:00 +5°C° 0 mm 1 mps 691 mmHg 84%
    11:00 +6°C° 0 mm 1 mps 691 mmHg 84%
    12:00 +6°C° 0 mm 1 mps 691 mmHg 85%
    13:00 +7°C° 0 mm 1 mps 690 mmHg 85%
    14:00 +7°C° 0 mm 1 mps 690 mmHg 85%
    15:00 +7°C° 0 mm 1 mps 689 mmHg 85%
    16:00 +7°C° 0 mm 1 mps 689 mmHg 87%
    17:00 +6°C° 0 mm 1 mps 689 mmHg 88%
    18:00 +6°C° 0 mm 1 mps 689 mmHg 90%
    19:00 +6°C° 0 mm 1 mps 689 mmHg 90%
    20:00 +5°C° 0 mm 0 mps 690 mmHg 91%
    21:00 +4°C° 0 mm 0 mps 690 mmHg 91%
    22:00 +4°C° 0 mm 0 mps 690 mmHg 91%
    23:00 +4°C° 0 mm 0 mps 690 mmHg 92%

    10 April, Friday

    Time Temperature Precipitation Wind Pressure Humidity
    00:00 +4°C° 0 mm 0 mps 690 mmHg 92%
    01:00 +4°C° 0 mm 0 mps 689 mmHg 93%
    02:00 +3°C° 0 mm 0 mps 689 mmHg 93%
    03:00 +4°C° 0 mm 1 mps 689 mmHg 93%
    04:00 +4°C° 0 mm 1 mps 689 mmHg 93%
    05:00 +4°C° 0 mm 1 mps 689 mmHg 92%
    06:00 +5°C° 0 mm 1 mps 689 mmHg 91%
    07:00 +5°C° 0 mm 1 mps 689 mmHg 90%
    08:00 +6°C° 0 mm 1 mps 689 mmHg 88%
    09:00 +7°C° 0 mm 1 mps 689 mmHg 87%
    10:00 +6°C° 0 mm 2 mps 689 mmHg 88%
    11:00 +6°C° 0 mm 2 mps 688 mmHg 90%
    12:00 +6°C° 0 mm 2 mps 688 mmHg 91%
    13:00 +6°C° 0 mm 2 mps 688 mmHg 92%
    14:00 +6°C° 0 mm 2 mps 687 mmHg 92%
    15:00 +7°C° 0 mm 1 mps 687 mmHg 93%
    16:00 +7°C° 0 mm 1 mps 687 mmHg 93%
    17:00 +7°C° 0 mm 1 mps 687 mmHg 94%
    18:00 +7°C° 0 mm 1 mps 687 mmHg 94%
    19:00 +6°C° 0 mm 1 mps 688 mmHg 95%
    20:00 +5°C° 0 mm 0 mps 688 mmHg 95%
    21:00 +5°C° 0 mm 0 mps 688 mmHg 95%
    22:00 +5°C° 0.3 mm 0 mps 688 mmHg 95%
    23:00 +5°C° 0.3 mm 0 mps 688 mmHg 95%
    Show more